Weather in Klubovka

Ukraine / Khmelnitsky District     50°04′51″N   26°46′42″E
temp.,
°C
wind,
m/s
gust,
m/s
humid.,
%
clouds,
%
prec.,
mm/h
press.,
hPa
HPBL,
m
9 march, tue
tue923:00−4nw368469 0.0 1019254
02:00−4wnw348561 0.0 1020151
05:00−5w23881 0.0 102066
08:00−4wnw249245 0.1 1021256
11:00−2n237398 0.3 1022844
14:00−1n235999 0.6 10221136
17:00−1n236294 0.1 1022637
20:00−4ene227060 0.1 102431
10 march, wed
wed1023:00−4ese367990 0.0 1024227
02:00−4se378295 0.0 1024271
05:00−5se3783100 0.0 1023286
08:00−4se4784100 0.0 1023384
11:00−2se468499 0.1 1022525
14:00−1se4690100 0.4 1022503
17:00−1se4691100 0.5 1021480
20:00−2se4796100 0.9 1023443
11 march, thu
thu1123:00−3se4795100 0.8 1023416
02:00−3se4695100 1.6 1024387
05:00−3se3595100 1.3 1023357
08:00−3sse4794100 1.9 1024453
11:00−2sse578597 0.1 1024691
14:000sse577896 0.1 1023900
17:00−1sse487782 0.0 1022571
20:00−3sse6127555 0.0 1022424
12 march, fri
fri1223:00−2sse7156998 0.0 1021573
02:00−2s8166799 0.0 1018601
05:00−2s91666100 0.0 1015552
08:00−2s91693100 0.5 1014556
11:000s91496100 3.0 1013649
14:00+1ssw71199100 3.4 1013540
17:00+2ssw5119599 0.1 1013326
20:00+1sw599298 0.6 1015194
13 march, sat
sat1323:000sw349045 0.0 101664
02:00−1ssw349132 0.0 101666
05:00−1ssw359354 0.0 101697
08:000s379269 0.0 1016157
11:00+3ssw3798100 0.0 1016299
14:00+3ssw4997100 0.2 1014472
17:00+2s5898100 0.1 1014248
20:00+1sw3797100 0.3 1015177